Home > Weather > Warendorf > Past weeks

Flag for Germany Weather for the Past 2 Weeks in Warendorf, North Rhine-Westphalia, Germany

Now
37 °F

Clear.


Feels Like: 37 °F
Forecast: 42 / 55 °F
Wind: 1 mph from North

Location: Muenster / Osnabrueck

Current Time: May 2, 2016 at 4:27:45 AM

Latest Report: May 2, 2016 at 3:50 AM


Visibility: 10 mi

Pressure: 30.30 "Hg

Humidity: 100%

Dew Point: 37 °F

Location of WarendorfLocation

Historic Weather in Warendorf — Graph

°F

Warendorf Temperature Yesterday

Maximum temperature yesterday: 57 °F (at 3:20 PM)
Minimum temperature yesterday: 41 °F (at 3:20 AM)
Average temperature yesterday: 49 °F

High & Low Weather Summary for the Past Weeks

 TemperatureHumidityPressure
High61 °F (Apr 21, 2:50 PM)100% (Apr 18, 3:50 AM)30.48 "Hg (Apr 18, 3:50 AM)
Low30 °F (Apr 18, 6:20 AM)31% (Apr 21, 6:20 PM)29.42 "Hg (Apr 26, 8:20 AM)
Average44 °F73%30.00 "Hg
* Reported Apr 17 3:20 AM — May 2 3:20 AM, Warendorf, Weather by CustomWeather, © 2016

Note: Actual official high and low records may vary slightly from our data, if they occured in-between our weather recording intervals... More about our weather records

Advertising

Warendorf Weather History for the Previous 24 Hours

Scroll right to see more
 ConditionsComfort  
Time TempWeatherWind HumidityBarometerVisibility
3:20 AM
Mon, May 2
39 °FClear.No wind93%30.30 "Hg10 mi
2:50 AM39 °FClear.No wind93%30.30 "Hg10 mi
2:20 AM39 °FClear.1 mph93%30.33 "Hg10 mi
1:50 AM41 °FClear.1 mph87%30.33 "Hg10 mi
1:20 AM41 °FClear.1 mph93%30.33 "Hg10 mi
12:50 AM43 °FClear.1 mph81%30.33 "Hg10 mi
12:20 AM45 °FClear.1 mph76%30.33 "Hg10 mi
11:50 PM
Sun, May 1
45 °FClear.1 mph76%30.33 "Hg10 mi
11:20 PM45 °FClear.1 mph76%30.33 "Hg10 mi
10:50 PM45 °FClear.2 mph81%30.33 "Hg10 mi
10:20 PM46 °FClear.2 mph76%30.33 "Hg10 mi
9:50 PM48 °FPassing clouds.3 mph71%30.33 "HgN/A
9:20 PM48 °FSunny.5 mph71%30.33 "Hg10 mi
8:50 PM52 °FSunny.7 mph62%30.33 "Hg10 mi
8:20 PM54 °FSunny.6 mph58%30.33 "Hg10 mi
7:50 PM55 °FSunny.9 mph55%30.30 "Hg10 mi
7:20 PM57 °FPassing clouds.10 mph51%30.30 "HgN/A
6:50 PM57 °FPassing clouds.9 mph51%30.30 "HgN/A
6:20 PM57 °FPassing clouds.12 mph51%30.30 "HgN/A
5:50 PM57 °FSunny.12 mph51%30.30 "Hg10 mi
5:20 PM57 °FPassing clouds.9 mph55%30.30 "HgN/A
4:50 PM57 °FPassing clouds.10 mph55%30.30 "HgN/A
4:20 PM57 °FPassing clouds.12 mph51%30.30 "HgN/A
3:50 PM57 °FPassing clouds.12 mph51%30.30 "HgN/A
3:20 PM57 °FPassing clouds.12 mph51%30.30 "HgN/A
2:50 PM55 °FPassing clouds.12 mph51%30.30 "HgN/A
2:20 PM55 °FPassing clouds.10 mph55%30.30 "HgN/A
1:50 PM55 °FPassing clouds.10 mph55%30.30 "HgN/A
1:20 PM55 °FPassing clouds.12 mph59%30.30 "HgN/A
12:50 PM54 °FPassing clouds.12 mph63%30.30 "HgN/A
12:20 PM52 °FPassing clouds.12 mph62%30.30 "HgN/A
11:50 AM52 °FScattered clouds.13 mph62%30.30 "HgN/A
11:20 AM50 °FScattered clouds.10 mph71%30.30 "HgN/A
10:50 AM48 °FPartly sunny.12 mph71%30.30 "HgN/A
10:20 AM46 °FBroken clouds.12 mph76%30.30 "HgN/A
9:50 AM46 °FBroken clouds.10 mph76%30.30 "HgN/A
8:50 AM45 °FPartly sunny.10 mph81%30.30 "HgN/A
8:20 AM43 °FPartly sunny.10 mph87%30.30 "HgN/A
7:50 AM43 °FPartly sunny.10 mph87%30.27 "HgN/A
7:20 AM43 °FPartly sunny.10 mph81%30.27 "HgN/A
6:20 AM41 °FPartly cloudy.8 mph87%30.27 "HgN/A
5:50 AM41 °FPartly cloudy.8 mph87%30.27 "HgN/A
5:20 AM41 °FPartly cloudy.9 mph87%30.24 "HgN/A
4:20 AM43 °FPartly cloudy.8 mph81%30.24 "HgN/A
Weather by CustomWeather, © 2016

See weather overviewHow to use our weather pages